Weather Roundup
Issued by NWS Corpus Christi, TX

Home | Current Version | Previous Version | Text Only | Print | Product List | Glossary On
Versions: 1 2 3 4 5 6 7 8 9 10 11 12 13 14 15 16 17 18 19 20 21 22 23 24 25 26 27 28 29 30 31 32 33 34 35 36 37 38 39 40 41 42 43 44 45 46 47 48 49 50
000
ASUS44 KCRP 011810
HRRCRP

SOUTH TEXAS REGIONAL WEATHER ROUNDUP
NATIONAL WEATHER SERVICE CORPUS CHRISTI TX
100 PM CDT SAT AUG 01 2015


TXZ229>244-011900-
...CORPUS CHRISTI AREA OBSERVATIONS...

CITY           SKY/WX    TMP DP  RH WIND       PRES   REMARKS
CORPUS CHRISTI MOSUNNY   94  71  47 N8        29.96F HX 101
NAS CORPUS CHR SUNNY     90  75  61 NE7       29.95F HX 100
ROCKPORT       SUNNY     93  74  53 E8        29.95F HX 103
KINGSVILLE NAS PTSUNNY   95  75  52 N9        29.95F HX 107
ALICE          SUNNY     95  71  45 NE8       29.95F HX 102
FALFURRIAS     MOSUNNY   93  69  46 CALM      29.95F HX  98
$$

...VICTORIA AREA OBSERVATIONS...

CITY           SKY/WX    TMP DP  RH WIND       PRES   REMARKS
VICTORIA       SUNNY     95  65  37 N9        29.97F HX  97
BEEVILLE       FAIR      92  71  50 NE5       29.97S HX  99
PLEASANTON     MOSUNNY   96  65  35 NE6       29.98F HX  99
SAN ANTONIO    MOSUNNY   93  68  43 N6        30.01F HX  97
$$

...LAREDO AREA OBSERVATIONS...

CITY           SKY/WX    TMP DP  RH WIND       PRES   REMARKS
LAREDO         SUNNY     94  69  43 E8        29.99F HX  99
COTULLA        MOSUNNY   94  70  45 SE8       29.98F HX 100
DEL RIO        MOSUNNY   94  66  39 S13       30.00F HX  97
MCALLEN        MOSUNNY   97  71  42 E9        29.95F HX 104
HEBBRONVILLE     N/A     92  67  44 N3        29.99F HX  95
$$

...OTHER TEXAS OBSERVATIONS...

CITY           SKY/WX    TMP DP  RH WIND       PRES   REMARKS
BROWNSVILLE    PTSUNNY   93  72  50 NE8       29.95F HX 101
HOUSTON        PTSUNNY   95  64  35 VRB7      29.98F HX  97
COL. STATION   SUNNY     94  63  35 N12       30.01F HX  95
AUSTIN         MOSUNNY   91  60  35 NE9       30.01F HX  90
WACO           SUNNY     93  60  33 E6        30.04F HX  93
FORT WORTH     PTSUNNY   92  59  33 E5        30.06F HX  91
WICHITA FALLS  TSTM      78  69  73 SW12      30.09S
LUBBOCK        PTSUNNY   80  67  64 SE14      30.16F
EL PASO        MOSUNNY   88  56  33 CALM      30.13F
$$

...MARINE OBSERVATIONS...

STATION/POSITION TIME  SKY/WX   TEMP    WIND        PRES    VSBY  WAVE   SWELL
                                AIR SEA DIR/SP/G                  HT/PER HT/PER
                 (UTC)          (F)     (DEG/KT/KT) (MB)    (MI)  (FT/S) (FT/S)
PORT ARANSAS     1800            83 84   60/  8/  9 1014.9F
BUOY 90 E PORT A 1750            86 86   30/ 10/ 12 1013.6F         2/ 4
BUOY 45 SE BAFFI 1750            83 86  360/  6/  8 1014.0F         1/ 5
BUOY 200 E PT IS 1750            80 86  250/ 10/ 12 1014.3F         1/ 4
BUOY 15 E GALVES 1750            85 86   70/ 14/ 16 1013.8F         3/ 5
$$


USA.gov is the U.S. government's official web portal to all federal, state and local government web resources and services.